Weather History for Barter Island, AK

Change the Weather History Date:

Sunday, February 2, 2014

  Actual Average Record
Temperature  
Mean Temperature 18 °F -  
Max Temperature 23 °F -4 °F 30 °F (2006)
Min Temperature 12 °F -17 °F -36 °F (2006)
Degree Days  
Heating Degree Days 48    
Moisture  
Dew Point 16 °F    
Average Humidity 93    
Maximum Humidity 100    
Minimum Humidity 85    
Precipitation  
Precipitation 0.00 in - - ()
Sea Level Pressure  
Sea Level Pressure 30.76 in    
Wind  
Wind Speed 7 mph (WNW)    
Max Wind Speed 18 mph    
Max Gust Speed 21 mph    
Visibility 4 miles    
Events Fog , Snow    
Averages and records for this station are not official NWS values.
T = Trace of Precipitation, MM = Missing Value Source: NWS Daily Summary

Daily Weather History Graph

Daily Weather History Graph

Search for Another Location

Airport:

Trip Planner

Search our weather history database for the weather conditions in past years. The results will help you decide how hot, cold, wet, or windy it might be!

Date:

Astronomy

Feb. 02, 2014 Rise Set
Actual Time 10:14 AM AKST 3:22 PM AKST
Civil Twilight 8:50 AM AKST 4:47 PM AKST
Nautical Twilight 7:32 AM AKST 6:05 PM AKST
Astronomical Twilight 6:20 AM AKST 7:17 PM AKST
Moon 9:12 AM AKST (2/2) 10:11 PM AKST (2/2)
Length of Visible Light 7h 57m
Length of Day
5h 08m
Waxing Crescent, 12% of the Moon is Illuminated
Feb 2
Waxing Crescent
Feb 6
First Quarter
Feb 14
Full
Feb 22
Last Quarter
Feb 28
New

Hourly Weather History & Observations

Time (AKST) Temp. Windchill Dew Point Humidity Pressure Visibility Wind Dir Wind Speed Gust Speed Precip Events Conditions
12:01 AM 21.9 °F 12.5 °F 21.0 °F 96% 30.59 in 4.0 mi West 8.1 mph - 0.00 in Snow Light Snow
12:32 AM 23.0 °F 13.1 °F 21.2 °F 93% 30.60 in 4.0 mi West 9.2 mph - 0.00 in Snow Light Snow
12:46 AM 23.0 °F 13.9 °F 21.2 °F 93% 30.61 in 9.0 mi WNW 8.1 mph - 0.00 in Snow Light Snow
1:01 AM 21.2 °F 16.4 °F 21.2 °F 100% 30.62 in 2.0 mi NW 3.5 mph - 0.00 in   Overcast
1:09 AM 21.2 °F 14.9 °F 21.2 °F 100% 30.62 in 1.5 mi NW 4.6 mph - 0.00 in   Overcast
1:18 AM 21.2 °F 14.9 °F 19.4 °F 93% 30.62 in 1.0 mi NNW 4.6 mph - 0.00 in   Overcast
1:27 AM 21.2 °F 14.9 °F 19.4 °F 93% 30.63 in 0.5 mi NNW 4.6 mph - 0.00 in Fog , Snow Light Snow
2:01 AM 21.0 °F - 19.0 °F 92% 30.64 in 0.5 mi Calm Calm - 0.00 in Fog , Snow Light Snow
2:22 AM 21.2 °F - 19.4 °F 93% 30.64 in 1.0 mi Calm Calm - 0.00 in Snow Light Snow
2:30 AM 21.2 °F - 19.4 °F 93% 30.65 in 2.0 mi Calm Calm - 0.00 in Snow Light Snow
2:48 AM 21.2 °F - 19.4 °F 93% 30.65 in 1.8 mi Calm Calm - 0.00 in Snow Light Snow
2:55 AM 21.2 °F - 19.4 °F 93% 30.66 in 3.0 mi Calm Calm - 0.00 in Snow Light Snow
3:01 AM 21.2 °F - 19.4 °F 93% 30.66 in 2.0 mi Calm Calm - 0.00 in Snow Light Snow
3:08 AM 21.2 °F - 19.4 °F 93% 30.66 in 0.8 mi Calm Calm - 0.00 in Snow Light Snow
3:20 AM 21.2 °F - 19.4 °F 93% 30.66 in 0.5 mi Calm Calm - 0.00 in Fog , Snow Light Snow
3:27 AM 21.2 °F - 19.4 °F 93% 30.66 in 0.8 mi Calm Calm - 0.00 in Snow Light Snow
3:48 AM 21.2 °F - 19.4 °F 93% 30.67 in 1.5 mi Calm Calm - 0.00 in Snow Light Snow
4:01 AM 21.0 °F - 19.9 °F 96% 30.68 in 1.2 mi Calm Calm - 0.00 in Snow Light Snow
4:10 AM 21.2 °F - 19.4 °F 93% 30.68 in 1.0 mi Calm Calm - 0.00 in Snow Light Snow
4:18 AM 21.2 °F - 19.4 °F 93% 30.68 in 1.5 mi Calm Calm - 0.00 in Snow Light Snow
4:27 AM 21.2 °F 14.9 °F 19.4 °F 93% 30.68 in 3.0 mi WNW 4.6 mph - 0.00 in   Overcast
4:46 AM 21.2 °F 13.6 °F 19.4 °F 93% 30.68 in 5.0 mi WNW 5.8 mph - 0.00 in   Overcast
5:01 AM 21.2 °F 12.6 °F 19.4 °F 93% 30.68 in 2.5 mi West 6.9 mph - 0.00 in   Overcast
5:10 AM 21.2 °F 10.9 °F 19.4 °F 93% 30.68 in 1.2 mi West 9.2 mph - 0.00 in   Overcast
5:24 AM 21.2 °F 11.7 °F 19.4 °F 93% 30.69 in 0.8 mi WNW 8.1 mph - 0.00 in   Overcast
5:55 AM 21.2 °F 6.4 °F 19.4 °F 93% 30.70 in 1.2 mi West 18.4 mph - 0.00 in   Overcast
6:01 AM 21.2 °F 7.3 °F 19.4 °F 93% 30.70 in 3.0 mi West 16.1 mph - 0.00 in Snow Light Snow
6:42 AM 17.6 °F 5.0 °F 15.8 °F 93% 30.71 in 1.0 mi WNW 11.5 mph - 0.00 in Snow Light Snow
6:51 AM 17.6 °F 5.0 °F 15.8 °F 93% 30.71 in 0.8 mi NW 11.5 mph - 0.00 in Snow Light Snow
7:01 AM 17.6 °F 4.3 °F 15.8 °F 93% 30.72 in 0.5 mi WNW 12.7 mph - 0.00 in Fog , Snow Light Snow
7:07 AM 17.1 °F 3.6 °F 15.1 °F 92% 30.72 in 0.5 mi WNW 12.7 mph - 0.00 in Fog , Snow Light Snow
7:17 AM 15.8 °F 0.9 °F 14.0 °F 93% 30.72 in 1.0 mi WNW 15.0 mph - 0.00 in Snow Light Snow
7:23 AM 15.8 °F 0.3 °F 12.2 °F 86% 30.73 in 2.0 mi NW 16.1 mph 20.7 mph 0.00 in Snow Light Snow
7:31 AM 15.8 °F 1.4 °F 12.2 °F 86% 30.74 in 3.0 mi NW 13.8 mph 20.7 mph 0.00 in   Overcast
7:38 AM 14.0 °F 1.2 °F 12.2 °F 93% 30.74 in 2.0 mi NW 10.4 mph - 0.00 in   Overcast
7:47 AM 14.0 °F -0.8 °F 12.2 °F 93% 30.74 in 7.0 mi NW 13.8 mph - 0.00 in   Overcast
8:01 AM 12.9 °F -0.2 °F 10.9 °F 92% 30.75 in 10.0 mi NW 10.4 mph - 0.00 in   Overcast
8:11 AM 12.2 °F -1.8 °F 10.4 °F 92% 30.75 in 10.0 mi NW 11.5 mph - N/A   Overcast
8:30 AM 12.2 °F -3.1 °F 10.4 °F 92% 30.77 in 9.0 mi NW 13.8 mph - N/A   Overcast
8:45 AM 12.2 °F -0.2 °F 8.6 °F 85% 30.77 in 10.0 mi NW 9.2 mph - N/A   Overcast
9:01 AM 12.0 °F -2.7 °F 9.0 °F 88% 30.77 in 10.0 mi NW 12.7 mph - N/A   Overcast
9:39 AM 12.2 °F -1.8 °F 8.6 °F 85% 30.78 in 10.0 mi WNW 11.5 mph - N/A   Overcast
9:56 AM 12.2 °F -0.2 °F 10.4 °F 92% 30.78 in 2.5 mi WNW 9.2 mph - N/A   Overcast
9:59 AM 12.2 °F -1.0 °F 10.4 °F 92% 30.78 in 1.0 mi WNW 10.4 mph - N/A   Overcast
10:01 AM 12.2 °F -1.0 °F 10.4 °F 92% 30.79 in 0.5 mi WNW 10.4 mph - N/A Fog Light Freezing Fog
10:11 AM 12.2 °F -1.0 °F 10.4 °F 92% 30.79 in 0.2 mi NW 10.4 mph - N/A Fog Light Freezing Fog
10:25 AM 12.2 °F -0.2 °F 10.4 °F 92% 30.79 in 0.8 mi NNW 9.2 mph - N/A   Overcast
10:32 AM 12.2 °F 0.7 °F 10.4 °F 92% 30.79 in 2.0 mi NNW 8.1 mph - N/A   Overcast
10:40 AM 12.2 °F 1.7 °F 10.4 °F 92% 30.79 in 7.0 mi NW 6.9 mph - N/A   Overcast
11:01 AM 12.9 °F 2.6 °F 10.9 °F 92% 30.79 in 9.0 mi WNW 6.9 mph - N/A   Overcast
11:26 AM 12.2 °F 6.1 °F 10.4 °F 92% 30.80 in 7.0 mi West 3.5 mph - N/A   Overcast
11:35 AM 12.2 °F 4.3 °F 10.4 °F 92% 30.80 in 5.0 mi West 4.6 mph - N/A   Overcast
12:01 PM 14.0 °F 6.5 °F 10.9 °F 88% 30.82 in 10.0 mi West 4.6 mph - N/A   Overcast
12:22 PM 14.0 °F 0.5 °F 12.2 °F 93% 30.82 in 10.0 mi WNW 11.5 mph - N/A   Overcast
1:01 PM 15.1 °F 1.8 °F 12.9 °F 91% 30.84 in 10.0 mi NW 11.5 mph - N/A   Overcast
2:01 PM 15.1 °F 4.2 °F 14.0 °F 95% 30.85 in 8.0 mi WNW 8.1 mph - N/A   Overcast
2:44 PM 15.8 °F 7.2 °F 14.0 °F 93% 30.85 in 1.8 mi SW 5.8 mph - 0.00 in Snow Light Snow
2:47 PM 15.8 °F 8.6 °F 14.0 °F 93% 30.85 in 0.8 mi SW 4.6 mph - 0.00 in Snow Light Snow
2:51 PM 15.8 °F 7.2 °F 14.0 °F 93% 30.85 in 0.2 mi WSW 5.8 mph - 0.00 in Fog , Snow Light Snow
3:01 PM 16.0 °F 5.3 °F 14.0 °F 92% 30.85 in 0.2 mi WSW 8.1 mph - 0.00 in Fog Light Freezing Fog
3:13 PM 17.6 °F 9.3 °F 15.8 °F 93% 30.85 in 0.8 mi West 5.8 mph - 0.00 in Snow Light Snow
3:16 PM 17.6 °F 9.3 °F 15.8 °F 93% 30.85 in 1.2 mi West 5.8 mph - 0.00 in Snow Light Snow
3:21 PM 17.6 °F 9.3 °F 15.8 °F 93% 30.85 in 3.0 mi West 5.8 mph - 0.00 in Snow Light Snow
3:35 PM 17.6 °F 9.3 °F 15.8 °F 93% 30.85 in 3.0 mi West 5.8 mph - 0.00 in Snow Light Snow
3:40 PM 17.6 °F 8.2 °F 15.8 °F 93% 30.85 in 1.8 mi West 6.9 mph - 0.00 in Snow Light Snow
3:51 PM 17.6 °F 7.3 °F 17.6 °F 100% 30.85 in 1.0 mi West 8.1 mph - 0.00 in Snow Light Snow
4:01 PM 17.6 °F 9.3 °F 17.6 °F 100% 30.85 in 1.5 mi West 5.8 mph - 0.00 in Snow Light Snow
4:11 PM 19.4 °F 11.5 °F 17.6 °F 93% 30.85 in 3.0 mi WNW 5.8 mph - 0.00 in Snow Light Snow
4:19 PM 19.4 °F 12.8 °F 17.6 °F 93% 30.85 in 5.0 mi West 4.6 mph - 0.00 in Snow Light Snow
5:01 PM 19.0 °F 12.3 °F 17.1 °F 92% 30.86 in 5.0 mi SW 4.6 mph - 0.00 in Snow Light Snow
5:32 PM 19.4 °F 10.4 °F 17.6 °F 93% 30.86 in 2.5 mi West 6.9 mph - 0.00 in Snow Light Snow
5:39 PM 19.4 °F 7.9 °F 17.6 °F 93% 30.85 in 3.0 mi WSW 10.4 mph - 0.00 in Snow Light Snow
6:01 PM 19.4 °F 6.6 °F 19.4 °F 100% 30.85 in 6.0 mi West 12.7 mph - 0.00 in Snow Light Snow
6:22 PM 21.2 °F 10.1 °F 19.4 °F 93% 30.85 in 9.0 mi West 10.4 mph - 0.00 in Snow Light Snow
7:01 PM 21.0 °F 10.6 °F 19.9 °F 96% 30.86 in 9.0 mi WNW 9.2 mph - 0.00 in Snow Light Snow
7:22 PM 21.2 °F 11.7 °F 19.4 °F 93% 30.86 in 8.0 mi WNW 8.1 mph - 0.00 in Snow Light Snow
7:37 PM 21.2 °F 11.7 °F 19.4 °F 93% 30.85 in 9.0 mi West 8.1 mph - 0.00 in Snow Light Snow
8:01 PM 21.0 °F 11.4 °F 19.0 °F 92% 30.85 in 9.0 mi West 8.1 mph - 0.00 in Snow Light Snow
9:01 PM 19.4 °F 10.4 °F 19.4 °F 100% 30.86 in 9.0 mi West 6.9 mph - 0.00 in Snow Light Snow
9:30 PM 19.4 °F 9.5 °F 19.4 °F 100% 30.87 in 9.0 mi West 8.1 mph - 0.00 in Snow Light Snow
9:52 PM 19.4 °F 11.5 °F 19.4 °F 100% 30.87 in 8.0 mi West 5.8 mph - 0.00 in Snow Light Snow
10:01 PM 19.9 °F 10.1 °F 19.0 °F 96% 30.87 in 9.0 mi WSW 8.1 mph - 0.00 in Snow Light Snow
10:31 PM 19.4 °F 9.5 °F 17.6 °F 93% 30.86 in 10.0 mi WSW 8.1 mph - 0.00 in   Overcast
10:40 PM 19.4 °F 14.3 °F 17.6 °F 93% 30.87 in 10.0 mi West 3.5 mph - 0.00 in   Overcast
11:01 PM 19.9 °F 11.1 °F 18.0 °F 92% 30.87 in 10.0 mi West 6.9 mph - 0.00 in   Overcast